Location: A�t Lahcen
(32.8243°N, 5.4246°W)
Time: 00:56:29
(UTC+00:00)

Atlas Centaur 2 - Pass Details

Date: 27 January 2021
Orbit: 459 x 1309 km, 30.4° (Epoch: 27 February)

Event Time Altitude Azimuth Distance (km) Brightness Sun altitude
Exits shadow 06:09:26 19° 267° (W) 2,348 3.9 -14.9°
Maximum altitude 06:14:53 61° 193° (SSW) 1,349 3.2 -13.8°
Drops below altitude 10° 06:23:10 10° 116° (ESE) 3,300 6.7 -12.1°
Sets 06:26:15 0° 113° (ESE) 4,287 7.9 -11.5°
